Portage Invitational 2019 vs Portage Invitational 2017

Aggregate Data Points
Difference This Meet That Meet
Overall Athletes +2299 3842 1543
Overall Average +1:12.35 21:34.58 20:22.23
1st-10th Place -32.13 15:10.72 15:42.85
1st-25th Place -28.55 15:31.82 16:00.36
1st-50th Place -27.53 15:49.27 16:16.80
1st-100th Place -27.66 16:07.42 16:35.09
Common Athletes -- -- 356
Ran Faster 204 280 76
Ran Season Best 87 99 12
Average Time -45.02 19:37.98 20:22.99
Median Time -50.60 19:20.90 20:11.50
Middle 80% Times -50.00 19:25.77 20:15.77
Top 10% Times -1:04.30 16:03.69 17:07.99
Top 25% Times -1:07.87 16:39.19 17:47.06
Top 50% Times -1:00.25 17:35.84 18:36.09
Bottom 50% Times -29.78 21:40.11 22:09.89
Bottom 25% Times -13.90 23:08.31 23:22.21
Bottom 10% Times +14.22 24:54.02 24:39.80
Average Difference -45.02 -- --
Median Difference -1:10.50 -- --
Middle 80% Difference -51.47 -- --
Top 10% Difference -49.38 -- --
Top 50% Difference -53.21 -- --
Top 25% Difference -55.23 -- --
Top 50% Difference -53.21 -- --
Bottom 50% Difference -36.82 -- --
Bottom 25% Difference -23.40 -- --
Bottom 10% Difference +14.85 -- --

Performances of Common Athletes
Athlete Team Difference This Meet That Meet
Mhalicki Bronson Defiance -1:11.80 15:00.30 16:12.10
Jack Spamer Brighton -1:38.70 15:02.70 16:41.40
Zach Stewart Brighton -33.60 15:07.10 15:40.70
Nathan Walker Fremont -1:28.30 15:07.60 16:35.90
Koby Fraaza Richland Gull Lake -1:20.50 15:34.70 16:55.20
Scott Spaanstra Brighton -1:25.60 15:36.00 17:01.60
Ethan Senti Zeeland West -1:38.30 15:36.70 17:15.00
Nathan Larson Dexter -1:48.30 15:41.90 17:30.20
William Minnette Saline -1:43.20 15:42.80 17:26.00
Jude Parks Rockford -1:51.40 15:45.10 17:36.50
Will Scott Chelsea -2:15.00 16:03.40 18:18.40
Joshua Zerfas Fremont -1:39.40 16:06.90 17:46.30
Zach Gerber Traverse City Central -1:27.40 16:07.40 17:34.80
Seth Read Dexter -1:57.30 16:07.80 18:05.10
Jack Pennewell St. Clair -1:23.70 16:08.80 17:32.50
Joseph Fedoronko Saline -2:15.40 16:09.00 18:24.40
Joseph Norwood Chelsea -1:41.60 16:10.90 17:52.50
Luke Witvliet Grandville Calvin Christian -3:01.60 16:13.00 19:14.60
Ben Paige Fremont -1:40.60 16:13.80 17:54.40
Carson Laney Jonesville -27.80 16:15.00 16:42.80
Elijah Becker East Grand Rapids -2:08.60 16:15.70 18:24.30
Aidan Makled Hastings -1:36.10 16:15.90 17:52.00
Zach Wright Potterville -45.50 16:18.80 17:04.30
Ryan Nibbelink Hudsonville -52.30 16:19.40 17:11.70
Connor Joyce Hartland -2:31.10 16:21.10 18:52.20
Ashton Sheline Berrien Springs -29.10 16:22.40 16:51.50
Gabe Carlson Grand Rapids Forest Hills Central -55.50 16:23.20 17:18.70
Shane Achterhof Walkerville -4.90 16:24.30 16:29.20
Alex Enns Hart -34.50 16:25.40 16:59.90
Johnathan Speers Saline -1:51.20 16:25.50 18:16.70
Jack Luymes Grand Rapids Christian -1:12.00 16:26.20 17:38.20
Jacob Deboer Holland Christian -1:49.50 16:26.40 18:15.90
Matthew Nowak Mt. Pleasant Sacred Heart -1:49.50 16:27.20 18:16.70
Aiden McLaughlin Morley Stanwood -4.10 16:28.40 16:32.50
Nik Pettinga Saugatuck +9.90 16:39.70 16:29.80
Jacob Brunty Saline -2:09.40 16:30.80 18:40.20
Garrett Melling Hanover-Horton -1:15.80 16:31.30 17:47.10
Dean Reynolds Hanover-Horton -1:46.10 16:31.50 18:17.60
Colin Moats Defiance -49.20 16:31.60 17:20.80
Andy Swihart Hanover-Horton -31.90 16:33.20 17:05.10
Zander Hartsuff Chelsea -1:31.50 16:33.90 18:05.40
Ethan Wilstermann Grand Rapids Christian -2:23.50 16:36.30 18:59.80
Lance Jourdan Grandville Calvin Christian -2:46.20 16:36.50 19:22.70
Micah Vanderkooi Grand Rapids South Christian -31.70 16:37.60 17:09.30
Josh Lynch Mt. Pleasant Sacred Heart -1:36.20 16:39.00 18:15.20
Andrew Hanna Brighton -2:19.10 16:40.50 18:59.60
Daniel Evans Ann Arbor Skyline -28.10 16:42.40 17:10.50
Eric Reiber Chelsea -3:10.80 16:44.00 19:54.80
Alvaro Martinez Bangor -40.60 16:45.00 17:25.60
Andrew Moyer St. Joseph -1:19.00 16:45.10 18:04.10
Nathan Conkel Hudsonville -1:27.40 16:45.40 18:12.80
Colltion Vine Breckenridge -2:19.20 16:46.00 19:05.20
Logan Foerch Caledonia -2:17.60 16:46.20 19:03.80
Finnegan Bell Dexter -1:49.60 16:49.40 18:39.00
Hayden James Jonesville -1:24.70 16:50.70 18:15.40
Colton Best Fremont +2.50 16:55.90 16:53.40
Jon Wildey Fruitport -1:11.50 16:54.40 18:05.90
Logan Shepherd Hanover-Horton -2:14.50 16:56.10 19:10.60
Carter Sheline Berrien Springs -35.00 16:59.00 17:34.00
Matt Lester Delton Kellogg -38.00 17:00.30 17:38.30
Andrew Wilson Brighton -1:00.90 17:02.60 18:03.50
Graham Kort Grand Rapids Christian -1:36.40 17:02.90 18:39.30
Nathan Irgang Saline -1:22.80 17:03.70 18:26.50
Jacob Majoor Rockford -1:08.80 17:04.70 18:13.50
Asher Berends Hudsonville -21.50 17:05.00 17:26.50
Shane Sauber Hanover-Horton -2:12.70 17:07.30 19:20.00
Ethan Beres Hartland -57.40 17:08.70 18:06.10
Sam Gardner Ann Arbor Skyline -1:34.00 17:10.40 18:44.40
Conor Kolka Dexter -1:26.90 17:12.40 18:39.30
Richard Haislip Hanover-Horton -2:40.40 17:14.40 19:54.80
Christofer Clisham Saline -1:18.10 17:14.50 18:32.60
Tyler Brunner Portage Central -19.20 17:14.60 17:33.80
Luke Blesy Bridgman -37.90 17:14.80 17:52.70
Ashton Gillis Breckenridge -2:17.60 17:16.50 19:34.10
Addison Bluhm Whitehall -47.00 17:17.10 18:04.10
Gus Hinch Watervliet -43.60 17:19.20 18:02.80
Jimmy Alford Chelsea -1:43.80 17:20.10 19:03.90
Jacob Andrews Traverse City St. Francis -30.80 17:21.60 17:52.40
Nick Errer Hartland -16.80 17:21.60 17:38.40
Ben Peterson Grand Rapids Christian -31.80 17:22.30 17:54.10
Sean Coney East Grand Rapids +37.30 18:01.00 17:23.70
Colton Chovanec Breckenridge -1:15.10 17:26.00 18:41.10
Hunter Tubbs Hart +5.30 17:33.00 17:27.70
Gavin Orcutt Fremont -2:11.30 17:30.20 19:41.50
Connor Krueger Hartland -1:13.70 17:30.70 18:44.40
Ben Everse Zeeland East -28.90 17:31.00 17:59.90
Austin DePue Temperance-Bedford -45.50 17:36.00 18:21.50
Dakata Ames Mendon -1:53.80 17:36.60 19:30.40
Justus Holben DeWitt -36.50 17:38.50 18:15.00
Noah Pelletier Saline -55.10 17:38.50 18:33.60
Mason Hammond Shepherd -7.30 17:38.50 17:45.80
Alex Sheehy Walkerville -2:21.60 17:39.80 20:01.40
Joe Delgado Traverse City Central +46.90 18:27.00 17:40.10
Noah Bock Temperance-Bedford -45.00 17:42.80 18:27.80
Sam Johnson Rockford -38.10 17:45.10 18:23.20
Hunter Bentley Bear Lake -1:49.20 17:46.70 19:35.90
Andrew Victoria Saline -33.00 17:47.00 18:20.00
Owen Smith Chelsea -42.40 17:48.50 18:30.90
Carter Thelen Traverse City St. Francis -48.00 17:48.90 18:36.90
Ben Garretson Muskegon Western Michigan Christian -51.00 17:49.40 18:40.40
Jordan Reynolds Potterville -41.30 17:49.70 18:31.00
Jacob Malocha Vicksburg -2:00.20 17:55.60 19:55.80
Jamie Terrill Parchment -2:22.40 17:55.70 20:18.10
Spencer Zick Marshall -48.50 17:57.90 18:46.40
David Evans Ann Arbor Skyline +24.80 18:24.50 17:59.70
Vinny Ladner Grand Rapids West Catholic -30.50 17:59.70 18:30.20
Owen Sullivan Traverse City Central -1:00.90 17:59.90 19:00.80
Jack Kennedy Hudsonville +56.90 18:58.70 18:01.80
Connor Callahan Grand Rapids Forest Hills Northern -50.10 18:02.00 18:52.10
Halle Hamilton Lexington -1:43.80 18:03.10 19:46.90
Jon Larue Grand Rapids Christian -1:04.50 18:03.10 19:07.60
Elka Machan Coldwater -2:50.00 18:08.10 20:58.10
Dilon Donihue Hillsdale Academy -51.90 18:09.00 19:00.90
Brody Ankoviak Sanford-Meridian +31.70 18:41.60 18:09.90
Isaiah Gavaldon Traverse City Central +1:08.20 19:19.40 18:11.20
Tyler Munch Spring Lake -1:27.60 18:12.50 19:40.10
Gage White Sanford-Meridian +26.30 18:39.90 18:13.60
Bryan Smith Concord -11.40 18:17.50 18:28.90
Johnathon Markley Breckenridge -1:13.00 18:18.00 19:31.00
Sam Offringa Kalamazoo Christian -40.60 18:22.50 19:03.10
Yasmine Mansi Northville -12.40 18:23.30 18:35.70
Kolbe Mills Grand Rapids West Catholic +1:55.00 20:18.50 18:23.50
Luke Munsey Zeeland West -1.50 18:24.20 18:25.70
Reece Welch Grant -2:12.00 18:25.00 20:37.00
Gideon Howard Shepherd -1:10.10 18:25.60 19:35.70
Dawson Grizzle Delton Kellogg -1:21.20 18:25.80 19:47.00
Robert Stump Chelsea -1:45.10 18:26.40 20:11.50
Blake Nelson Allendale -1:20.40 18:26.70 19:47.10
Luke Caswell East Grand Rapids -16.70 18:27.10 18:43.80
Logan Barrett Concord -2:36.60 18:27.30 21:03.90
Annie Allen Cle. St. Jos -16.70 18:27.40 18:44.10
Isaac Noyes Caledonia -13.70 18:28.70 18:42.40
Asher Liu Spring Lake -1:48.40 18:29.20 20:17.60
Avery Mclean Traverse City Central -1:21.30 18:30.60 19:51.90
Ruben Pung Zeeland West +0.10 18:31.50 18:31.40
Katie Hessler East Grand Rapids -2:27.80 18:31.50 20:59.30
Zach Bitely Hart +26.40 18:58.10 18:31.70
Joanna Halfhill Lexington -2:07.70 18:32.50 20:40.20
Leah Socks Traverse City Central -33.20 18:34.10 19:07.30
Colin Steinberger Mendon -2.80 18:34.20 18:37.00
Ian Heckel Zeeland West -2.70 18:34.20 18:36.90
Anson Alvarez Hillsdale Academy +11.00 18:45.80 18:34.80
Isabella Johnson Temperance-Bedford -1:54.70 18:35.10 20:29.80
Alex Leonard Kalamazoo Hackett +1:25.40 20:00.60 18:35.20
Hannah Bodine East Grand Rapids -52.90 18:35.70 19:28.60
Aaron Baumann Zeeland East -1:00.70 18:36.20 19:36.90
Lindsey Peters Caledonia -2:17.00 18:37.30 20:54.30
Tristan Lee Blanchard Montabella +1:19.60 19:58.30 18:38.70
Natalie Newcombe Remus Chippewa Hills -1:59.10 18:38.70 20:37.80
Anderson Strand Shepherd -46.80 18:39.00 19:25.80
Parker Holt Whitehall -1:25.30 18:39.00 20:04.30
Ellie Voetberg Portage Central -2:01.70 18:39.10 20:40.80
James Lilly East Kentwood -10.00 18:44.20 18:54.20
Elsa Rusthoven DeWitt -3:29.00 18:44.40 22:13.40
Kaitlyn Hynes DeWitt -2:33.90 18:44.60 21:18.50
Luke Holton Concord -54.90 18:44.60 19:39.50
Chris Stapel Hesperia -7.50 18:46.00 18:53.50
Logan Payne Three Oaks-River Valley -1:07.30 18:46.60 19:53.90
Pierce Newell Muskegon Western Michigan Christian -55.50 18:46.70 19:42.20
Tyler Gould Muskegon Western Michigan Christian -44.50 18:49.70 19:34.20
Paul Radulescu Marshall +10.80 19:00.80 18:50.00
Landyn Howell Grand Rapids Forest Hills Eastern -2:02.50 18:50.70 20:53.20
Max Jakubowski Zeeland East -1:13.50 18:51.70 20:05.20
Emily Gordon Northville -1:04.80 18:51.90 19:56.70
Scotty Bolton Hanover-Horton -42.90 18:53.80 19:36.70
Kayla Eklund Richland Gull Lake -1:44.20 18:55.60 20:39.80
Savannah Ackley Hart -0.30 18:58.50 18:58.80
Libby Gorman Traverse City St. Francis -1:33.70 19:03.20 20:36.90
Daniel Plaisier Muskegon Western Michigan Christian -48.80 19:04.20 19:53.00
Anna Vogel Ann Arbor Pioneer -58.90 19:06.20 20:05.10
Morgan Crompton Brighton -1:10.50 19:07.10 20:17.60
Nicole Dillmann Saline -1:21.80 19:08.20 20:30.00
Sophia Dipiazza Allendale -1:29.60 19:09.50 20:39.10
Kori Baumann Allendale -47.20 19:10.40 19:57.60
Skylar Thompson Concord -40.60 19:11.00 19:51.60
Henry Schenkel Grand Rapids Christian +58.80 20:10.10 19:11.30
Lucy Petee Mason -1:36.90 19:11.40 20:48.30
Catherine Kortman Grandville Calvin Christian -1:42.80 19:12.00 20:54.80
Matthew Hanks Watervliet -1:36.40 19:12.20 20:48.60
Jackson Hambright Vicksburg -1:06.20 19:14.30 20:20.50
Lynae Ackley Hart -1:05.30 19:15.00 20:20.30
Keira Courtney Northville -53.10 19:15.20 20:08.30
Claten Patten Hastings +53.30 20:13.70 19:20.40
Riley Ford Marlette -3.10 19:20.90 19:24.00
Trent Herrera Kentwood Grand River Preparatory -32.50 19:21.70 19:54.20
Seanna Schmidt Milan -28.80 19:22.20 19:51.00
Laura O'brien Ann Arbor Skyline -1:16.50 19:23.20 20:39.70
Anna Fedewa Spring Lake -3:04.00 19:24.40 22:28.40
Jenna Picard Bay City Western -1:31.20 19:24.80 20:56.00
Olivia Waalkes Grand Rapids Christian -2:56.40 19:25.20 22:21.60
Josiah Swenor Spring Lake -49.70 19:25.20 20:14.90
Layla Martini Kent City -7.40 19:25.90 19:33.30
Carter Cole Grant +5.00 19:31.20 19:26.20
Taylor Visscher Caledonia -1:15.00 19:26.50 20:41.50
Erin Hegarty Dearborn Divine Child -35.70 19:26.70 20:02.40
Ethan Rupp Parchment -33.90 19:29.80 20:03.70
Madde Skeel Shepherd -9.70 19:30.60 19:40.30
Thomas Callen Spring Lake +33.20 20:03.90 19:30.70
Emily Macina Zeeland East -1:33.30 19:31.20 21:04.50
Kailee Sandoval Grass Lake -1:05.10 19:32.10 20:37.20
Joel Carlson Potterville -1:23.70 19:37.70 21:01.40
Hannah Smith Traverse City West +41.30 20:20.10 19:38.80
Julia Bajt Spring Lake -1:07.90 19:39.70 20:47.60
Hannah Clark Chagrin Falls -37.20 19:39.80 20:17.00
Kaylee Thompson Niles -1:01.20 19:41.80 20:43.00
Mackenzie Stitt Hart -0.70 19:42.10 19:42.80
Desiree McConnell Mt. Pleasant Sacred Heart +47.30 20:29.90 19:42.60
Margaret Coney East Grand Rapids -29.80 19:45.00 20:14.80
Brenna Aerts Hart +1.00 19:46.80 19:45.80
Caleigh Winters Potterville -2:28.70 19:50.80 22:19.50
Nicole Marco Grand Rapids Forest Hills Central -1:00.70 19:52.30 20:53.00
Erin Moore Berrien Springs -22.90 19:52.60 20:15.50
Renea Kutcha Jackson Lumen Christi -36.40 19:54.70 20:31.10
Trevor Eisenlohr Bear Lake -1:03.00 19:56.80 20:59.80
Ben Welch Vicksburg +38.30 20:36.30 19:58.00
Alyssa Dorn Temperance-Bedford -54.30 19:58.50 20:52.80
Schlabach Gabriella Centreville -1:22.40 19:59.40 21:21.80
Aubree Sedore Galesburg-Augusta -44.80 19:59.50 20:44.30
Alex Isbrecht Watervliet +12.40 20:13.10 20:00.70
Jacob Cay Sanford-Meridian +11.00 20:11.80 20:00.80
Jacob Dudley Mendon +4.80 20:06.80 20:02.00
Brianna Eisenga McBain -1:34.90 20:02.40 21:37.30
Jacob Heyboer Grandville Calvin Christian -1:27.10 20:02.70 21:29.80
Amelia Gouin Shepherd -1:03.00 20:03.00 21:06.00
Mia Phillips Holland Black River +3.70 20:09.70 20:06.00
Hannah Brock Big Rapids +11.20 20:19.20 20:08.00
Tessa Gerhardt Lexington -1:02.70 20:08.90 21:11.60
Maggie O'malley McBain -51.60 20:10.20 21:01.80
Tai Babinec Bear Lake -13.10 20:10.30 20:23.40
Kallie Harrison Bloomingdale +4.40 20:14.90 20:10.50
Haley Aho Dearborn Divine Child -22.00 20:11.30 20:33.30
Mary Dow Parchment -1:32.60 20:11.60 21:44.20
Ashley Avant Dearborn Divine Child -1:53.20 20:11.90 22:05.10
Maggie Cooper Spring Lake -1:03.40 20:12.00 21:15.40
Evan Frank Vicksburg +50.20 21:02.60 20:12.40
Dru Matheny Schoolcraft -23.50 20:12.40 20:35.90
Claire Ackerman Traverse City West +2:15.20 22:28.70 20:13.50
Karsyn Stewart Bridgman -1:18.00 20:14.20 21:32.20
Jenna Ray Grand Haven -2:10.70 20:15.50 22:26.20
Lauren Butterfield Allendale -1:12.20 20:16.30 21:28.50
Kathleen Hummer Byron Center -42.60 20:16.60 20:59.20
Sawyer Barton Vicksburg -1:08.80 20:18.00 21:26.80
Carly Michele Grand Rapids Christian -9.20 20:19.60 20:28.80
Eden Traub Grand Haven -2:22.50 20:26.90 22:49.40
Jillian Vera Saugatuck -1:26.00 20:27.90 21:53.90
Alexander Henrys Potterville +31.30 20:59.50 20:28.20
Ruby Strahan Ludington +1:28.20 21:58.90 20:30.70
Olivia Quillan Grandville Calvin Christian +14.70 20:50.10 20:35.40
Anna Winkle Grand Rapids South Christian +1:19.00 21:55.10 20:36.10
Hanna Kroeze Grandville Calvin Christian -2:03.60 20:36.60 22:40.20
Kayley Porter Grand Rapids Forest Hills Northern -8.90 20:37.40 20:46.30
Anna Aupperlee Grand Rapids Christian -1:14.40 20:37.50 21:51.90
Lauryn Coleman Galesburg-Augusta +23.40 21:01.00 20:37.60
Isabella Schmenk Hartland -13.80 20:40.70 20:54.50
Brooke Aho Dearborn Divine Child -26.80 20:41.90 21:08.70
Claire Cannon East Grand Rapids +53.40 21:37.40 20:44.00
Layla Creed Hart -1:11.60 20:44.30 21:55.90
Avery Schenk Zeeland West -39.40 20:45.40 21:24.80
Anna Dood Grand Rapids Forest Hills Northern -1:29.70 20:46.80 22:16.50
Olivia Richards Traverse City Central -1:00.80 20:50.50 21:51.30
Reagan Fazekas Hanover-Horton -1:35.60 20:53.70 22:29.30
Katie Schooley South Haven -23.20 20:55.20 21:18.40
Sophie McQueary Saugatuck -58.90 20:56.90 21:55.80
Ellen Gerhard Traverse City Central -1:15.50 20:57.90 22:13.40
Morgan Steenstra Grandville Calvin Christian -31.10 21:02.30 21:33.40
Kate Witvliet Grandville Calvin Christian -35.90 21:02.40 21:38.30
Grace Kolarik Kingsley +28.00 21:30.70 21:02.70
Arielle Melong Ann Arbor Skyline -1:21.70 21:03.50 22:25.20
Alex Erbe Mason -19.60 21:05.80 21:25.40
Sophia Frisbie Newaygo +15.70 21:23.50 21:07.80
Abby Chittle Traverse City St. Francis -1:07.50 21:07.90 22:15.40
Erica Lopez Eau Claire -1:24.90 21:11.20 22:36.10
Riley Thompson Rockford -1:03.00 21:11.60 22:14.60
Brynn Edison East Grand Rapids -1:22.90 21:13.70 22:36.60
Elizabeth Gates Grant -21.60 21:14.70 21:36.30
Katrina Beardsley Ann Arbor Pioneer -1:20.10 21:14.80 22:34.90
Eva Tilton Spring Lake +1:04.20 22:19.20 21:15.00
Carina Sanborn Ann Arbor Pioneer -22.60 21:17.60 21:40.20
Natalie Kelley Three Rivers -51.90 21:20.10 22:12.00
Jacey Orr Galesburg-Augusta -36.90 21:20.30 21:57.20
Sherry Dow Parchment -1:03.30 21:24.20 22:27.50
Leah Converse Fremont -1:37.20 21:27.20 23:04.40
Jaylen Schroeder Big Rapids Crossroads Charter +1:26.30 22:54.30 21:28.00
Maddy Wolf Grandville -1:25.70 21:29.30 22:55.00
Chloe Lohman Spring Lake +27.10 22:00.80 21:33.70
Annika Betz Grand Rapids Forest Hills Northern -40.20 21:33.90 22:14.10
Abby Ignasiak Kent City +1.20 21:35.50 21:34.30
Madeline Witvliet Grandville Calvin Christian +1:12.80 22:47.30 21:34.50
Becci Castillo Hesperia -3:12.70 21:36.70 24:49.40
Helena Snyder Blanchard Montabella +29.10 22:07.70 21:38.60
Jane Hartman Grand Rapids Forest Hills Northern -30.20 21:41.50 22:11.70
Carly Meulenberg Grand Rapids South Christian -1:12.70 21:41.70 22:54.40
Morisa Schelich Kingsley +23.10 22:05.70 21:42.60
Sidney Carrigan Traverse City Central +12.70 21:56.00 21:43.30
Analeigh Majewski Temperance-Bedford -47.20 21:44.10 22:31.30
Erin Norton Fremont -2:32.40 21:45.70 24:18.10
Jaynie Seylhower Spring Lake -1:15.90 21:46.90 23:02.80
Myra Marr Breckenridge -32.50 21:47.40 22:19.90
Elizabeth Sible Kent City -27.80 21:51.10 22:18.90
Chloe Koning Grand Rapids Christian -1:12.00 21:54.10 23:06.10
Anna Jackson Holland Black River +1:52.40 23:49.30 21:56.90
Sophie Thompson Traverse City West -51.60 21:57.90 22:49.50
Isabelle Marshall Traverse City West -1:17.50 21:58.10 23:15.60
Emma Vandermolen Coloma -1.40 22:01.50 22:02.90
Annie Knee Grand Rapids Forest Hills Northern -4.60 22:02.40 22:07.00
Jenna Dykstra East Grand Rapids +54.50 22:58.40 22:03.90
Mikaela Owen Bridgman -34.30 22:05.90 22:40.20
Kelsey Kehren Grand Ledge +4.40 22:10.80 22:06.40
Grace Stockdale St. Joseph Lake Michigan Catholic -9.70 22:08.00 22:17.70
Nithya Charles Grand Rapids South Christian +15.30 22:25.50 22:10.20
Sydney Hawkins Grand Rapids Christian -2:03.20 22:11.20 24:14.40
Annika Tuls Fremont -54.80 22:11.20 23:06.00
Ella Solomon Ann Arbor Skyline +4:31.40 26:42.70 22:11.30
Rupa Charles Grand Rapids South Christian -2:42.20 22:15.20 24:57.40
Whitney Paulson Traverse City St. Francis -3:52.20 22:16.10 26:08.30
Carissa Springvloed Grand Rapids South Christian -1:21.60 22:16.70 23:38.30
Sarah Baybeck Ann Arbor Pioneer +39.50 22:59.20 22:19.70
Emily Deming Shepherd +6.50 22:29.10 22:22.60
Ellie Tone Marcellus -1:25.90 22:23.30 23:49.20
Ashley Witham Grand Ledge -58.00 22:23.30 23:21.30
Natalie Riksen Muskegon Western Michigan Christian +2:46.40 25:12.10 22:25.70
Anna Orr Grand Rapids South Christian -2:23.80 22:26.00 24:49.80
Alexis North Sanford-Meridian +14.10 22:42.10 22:28.00
Michelle Reinke Mt. Pleasant Sacred Heart -31.00 22:29.50 23:00.50
Lauren Kellner Rockford -52.00 22:32.00 23:24.00
Macy Miscikowski Temperance-Bedford +4:03.30 26:35.90 22:32.60
Hannah Menosky Pinckney +1:25.40 23:58.50 22:33.10
Elise Vandekieft Grand Rapids South Christian -2:03.10 22:33.10 24:36.20
Grace Schaffer DeWitt -2:05.90 22:34.90 24:40.80
Ella Kensler Portage Central -37.40 22:38.80 23:16.20
Sophia Ullery Rockford -21.30 22:49.00 23:10.30
Alyssa Wabindato Potterville -2:25.10 22:58.80 25:23.90
Katelynn Kirkbride Caledonia -26.70 23:00.10 23:26.80
Athena Gillespie Traverse City St. Francis +47.00 23:53.00 23:06.00
Kiley Ward DeWitt +15.60 23:23.10 23:07.50
Tess Fookes Hudsonville +44.20 23:52.80 23:08.60
Taylor Volstorf Three Oaks-River Valley +2:01.20 25:11.70 23:10.50
Sydney Ybema Grand Rapids South Christian -59.90 23:14.80 24:14.70
Abby Vitale New Buffalo +34.80 24:12.90 23:38.10
Lauren Gutierrez Grand Rapids West Catholic +3:04.40 26:48.30 23:43.90
Gracie Patterson Grand Rapids South Christian -1:06.80 23:52.20 24:59.00
Myah Frazier Stevensville-Lakeshore -47.40 24:01.90 24:49.30
Alexa Jackson Centreville +24.00 24:31.90 24:07.90
Abby Miles Parma Western -35.20 24:24.50 24:59.70
Olivia Ludka Traverse City St. Francis +1:25.30 25:51.00 24:25.70
Haven Beyer Middleville-Thornapple Kellogg -13.70 24:30.10 24:43.80
Marley Fogel Spring Lake +4.00 24:37.00 24:33.00
Sara Eberly New Buffalo +2:07.00 26:42.60 24:35.60
Lednicky Olivia Allendale +30.80 25:10.30 24:39.50
Laura Doolittle McBain -47.70 24:41.10 25:28.80
Rachel Smith Zeeland West +33.10 25:28.90 24:55.80
Alexis Gilde McBain +2:12.60 27:12.70 25:00.10
Hannah Hofstra Creative Technical Academy +2:48.20 27:53.30 25:05.10
Ainsley Webb Centreville -37.50 26:03.50 26:41.00
Bridney Galindo Hart +3:38.80 31:14.80 27:36.00
Esther Ugalde Hartford +1:49.00 30:04.60 28:15.60